Regional Weather Roundup
Issued by NWS

Home | Current Version | Previous Version | Text Only | Print | Product List | Glossary On
Versions: 1 2 3 4 5 6 7 8 9 10 11 12 13 14 15 16 17 18 19 20 21 22 23 24 25 26 27 28 29 30 31 32 33 34 35 36 37 38 39 40 41 42 43 44 45 46 47 48 49 50
000
ASUS43 KDTX 240110
RWRMI
MICHIGAN HOURLY REGIONAL WEATHER ROUNDUP
NATIONAL WEATHER SERVICE DETROIT/PONTIAC MI
800 PM EST THU FEB 23 2017

NOTE: "FAIR" INDICATES FEW OR NO CLOUDS BELOW 12,000 FEET WITH NO
SIGNIFICANT WEATHER AND/OR OBSTRUCTION TO VISIBILITY.

MIZ047>049-052>055-059>063-066>070-074>076-081>083-240200-
SOUTHEAST LOWER MICHIGAN

CITY           SKY/WX    TMP DP  RH WIND       PRES   REMARKS
ADRIAN         CLOUDY    55  45  68 NE10      29.78S
ALMA           MOCLDY    42  34  73 N9G16     29.85F
ANN ARBOR      CLOUDY    54  43  66 N10       29.78F
BAD AXE        CLOUDY    37  33  84 NE9       29.88R WCI  31
CARO           CLOUDY    42  38  83 CALM      29.86R
DETROIT CITY   PTCLDY    42  37  82 NE12      29.85R
DETROIT        CLOUDY    50  40  68 E10       29.82R
FLINT          MOCLDY    48  38  68 NE8       29.84R
GROSSE ILE     CLOUDY    46  39  77 NE14      29.81R
HILLSDALE      CLOUDY    52  43  71 NE8       29.76F
HOWELL         CLOUDY    49  39  69 NE3       29.81F

CITY           SKY/WX    TMP DP  RH WIND       PRES   REMARKS
JACKSON        CLOUDY    51  41  68 NE7       29.79F
LAMBERTVILLE   CLOUDY    57  44  62 CALM      29.77S
LANSING        CLOUDY    48  38  68 N8        29.81F
LAPEER         FAIR      42  38  83 E3        29.86R
MASON          CLOUDY    48  42  78 NE5       29.80F
MONROE         MOCLDY    51  44  75 NE13G23   29.79R
MT. CLEMENS    CLOUDY    40  37  87 NE9       29.85R WCI  34
PONTIAC        CLOUDY    48  39  71 E10       29.81R
PORT HOPE        N/A     37  33  85 NE14      29.87R WCI  28
PORT HURON     MOCLDY    37  34  87 NE10G16   29.87R WCI  30
TRI CITIES     CLOUDY    42  37  82 N10       29.87R
MIDLAND        CLOUDY    42  32  67 N5        29.87R
TROY           MOCLDY    45  35  69 NE12      29.87R
SAGINAW HB     CLOUDY    43  36  75 N6        29.85R
$$
MIZ043>046-050>051-056>058-064>065-071>073-077>080-240200-
SOUTHWEST LOWER MICHIGAN

CITY           SKY/WX    TMP DP  RH WIND       PRES   REMARKS
BATTLE CREEK   CLOUDY    51  42  71 NE10      29.78F
BENTON HARBOR  CLOUDY    38  36  92 SE3       29.78F
BIG RAPIDS     FLURRIES  38  32  80 N6        29.85S WCI  33
COLDWATER      LGT RAIN  51  45  79 CALM      29.77F
FREMONT        MOCLDY    40  33  75 NE9       29.83F WCI  34
HOLLAND        CLOUDY    44  37  76 CALM      29.80F
GRAND RAPIDS   CLOUDY    46  36  68 NE10      29.81S
IONIA          FAIR      44  35  72 NE14      29.81F
KALAMAZOO      CLOUDY    49  40  71 NW5       29.80R
LUDINGTON      MIX PCPN  37  33  87 NE5       29.87S WCI  33
MARSHALL       CLOUDY    51  42  72 NE5       29.77F
MOUNT PLEASANT CLOUDY    40  33  74 N12       29.84F WCI  33
MUSKEGON       MOCLDY    44  35  70 NE9       29.83F
SOUTH HAVEN    LGT RAIN  39  37  91 N3        29.79F
$$
MIZ016>042-240200-
NORTHERN LOWER MICHIGAN

CITY           SKY/WX    TMP DP  RH WIND       PRES   REMARKS
ALPENA         CLOUDY    35  28  75 N9        29.91R WCI  28
BEAVER ISLAND  PTCLDY    30  23  75 NE3       29.94R
BELLAIRE       CLOUDY    33  28  81 CALM      29.93R
CADILLAC       CLOUDY    34  28  81 N3        29.87R
CHARLEVOIX     CLOUDY    33  28  81 N9        29.96R WCI  25
FRANKFORT      CLOUDY    36  28  72 CALM      29.93R
GAYLORD        CLOUDY    34  26  72 CALM      29.89R
GRAYLING       CLOUDY    35  29  80 N5        29.90R WCI  31
HARBOR SPRINGS CLOUDY    32  25  76 N6        29.93R WCI  26
HOUGHTON LAKE  CLOUDY    35  29  78 N5        29.88S WCI  31
MANISTEE       CLOUDY    37  28  70 NE10      29.90R WCI  30
OSCODA         CLOUDY    36  32  84 CALM      29.89R
PELLSTON       PTCLDY    32  23  69 N7        29.94R WCI  26
ROGERS CITY    PTCLDY    33  26  76 NW7       29.93R WCI  27
TRAVERSE CITY  CLOUDY    37  27  67 N7        29.91R WCI  32
$$
MIZ007>008-015-240200-
EASTERN UPPER MICHIGAN

CITY           SKY/WX    TMP DP  RH WIND       PRES   REMARKS
KINROSS        CLEAR     28  23  81 NW6       29.92R WCI  22
MACKINAC ISLAN PTCLDY    29  23  78 NW7       29.93R WCI  22
NEWBERRY       CLOUDY    30  22  72 NW3       29.92R
S. S. MARIE    CLEAR     31  21  66 NW10      29.90F WCI  22
MUNISING         N/A     33  24  69 N12       29.93R WCI  24
$$
MIZ004>006-011>014-085-240200-
CENTRAL UPPER MICHIGAN

CITY           SKY/WX    TMP DP  RH WIND       PRES   REMARKS
MANISTIQUE     CLOUDY    27  23  84 NW3       29.93S
ESCANABA       CLOUDY    34  24  67 NE3       29.93S
MENOMINEE      CLOUDY    35  26  69 E9        29.94R WCI  28
SAWYER-GWINN   CLOUDY    28  25  86 NE7       29.91R WCI  21
$$
MIZ001>003-009>011-084-240200-
WESTERN UPPER MICHIGAN

CITY           SKY/WX    TMP DP  RH WIND       PRES   REMARKS
IRON MOUNTAIN  CLOUDY    32  23  69 N5        29.90R WCI  27
HOUGHTON       PTCLDY    28  20  71 W5        29.91S WCI  23
COPPER HARBOR    N/A     33  23  66 NE9       29.94R WCI  25
IRONWOOD       PTCLDY    27  24  89 W3        29.95R
$$

ABBREVIATIONS USED IN REMARKS
   TC - TEMPERATURE IN CELSIUS
  WCI - WIND CHILL INDEX
   HX - HEAT INDEX
  VSB - VISIBILITY




USA.gov is the U.S. government's official web portal to all federal, state and local government web resources and services.